Theta_e
315 316 320 327 321 339 347 349 344 347 348 346 348 350 352 348 342 337 346 342 336 342 342 340 340 338 335 335 333 325 328 332 336 338 335 333 333 335 336 336 333 331 329 329 332 333 334 334 335
314 316 320 318 320 329 344 346 342 340 343 348 346 346 349 349 333 348 348 344 331 339 342 341 340 338 335 337 336 326 330 334 335 335 334 335 337 339 340 340 339 335 332 330 331 332 333 333 335
315 320 316 317 319 329 347 342 340 336 341 344 345 342 345 350 337 341 348 343 333 339 341 341 339 338 336 339 335 327 332 334 334 334 335 336 337 338 339 340 340 341 340 335 333 333 333 334 334
320 317 316 317 317 318 339 340 342 331 337 340 348 352 347 345 337 348 349 339 339 342 339 340 340 339 337 340 331 328 331 333 333 334 335 335 335 334 332 333 334 337 340 341 339 335 334 335 337
322 313 316 317 317 319 330 331 329 332 330 349 351 350 346 337 344 349 347 341 345 346 339 339 339 338 338 339 327 329 330 332 333 332 331 330 329 328 328 330 333 334 331 331 332 336 337 335 335
315 313 315 316 318 325 325 326 328 330 330 345 347 347 344 335 344 346 346 344 347 345 338 337 337 336 336 333 327 329 330 329 329 329 329 328 327 328 332 336 337 335 332 333 330 329 328 329 330
316 317 318 318 320 325 326 327 326 329 340 345 346 349 342 336 335 342 344 346 347 342 335 334 334 334 332 327 329 330 330 330 330 329 328 326 327 329 332 336 334 330 328 328 331 331 329 327 326
316 315 317 317 318 325 325 326 326 329 346 344 347 348 342 335 334 339 343 349 350 345 334 333 331 329 328 329 330 330 331 332 330 330 329 327 326 327 330 331 325 321 319 320 324 329 329 327 325
318 314 314 317 319 323 321 321 325 345 347 346 344 343 338 335 335 338 340 350 348 347 336 333 331 329 329 330 330 331 333 332 331 331 330 329 328 328 330 333 337 322 317 315 315 320 324 325 325
316 315 317 320 319 318 318 319 322 346 349 345 340 339 341 340 334 333 333 344 344 344 340 332 333 332 332 331 331 333 334 333 332 330 329 329 334 342 342 342 335 323 322 323 322 320 318 317 319
317 315 318 321 321 318 318 319 321 338 345 346 345 343 345 343 336 333 333 336 343 342 341 339 338 334 340 342 332 333 335 335 334 332 330 327 340 343 343 343 341 323 324 326 327 328 329 331 334
319 319 320 321 318 318 318 320 320 331 338 339 343 342 336 344 341 335 334 334 338 342 340 340 340 339 338 342 341 331 332 334 337 339 340 341 336 343 343 343 342 330 327 330 335 336 337 337 335
321 322 319 321 319 320 319 318 319 325 338 333 333 331 338 345 346 343 339 339 340 338 340 340 340 339 339 340 341 339 335 339 337 339 342 343 343 343 344 340 340 342 340 339 340 338 337 336 338
319 320 319 320 319 320 320 320 320 319 337 337 332 332 340 344 342 342 347 342 337 337 340 340 341 339 339 341 342 344 340 340 342 342 343 343 340 344 343 341 341 345 343 342 340 340 339 339 341
320 319 318 318 319 320 319 319 319 318 324 328 330 340 346 344 343 344 344 347 346 339 338 337 342 340 340 346 345 347 344 342 343 343 344 344 344 341 344 343 339 341 343 343 342 341 341 342 345
322 319 316 316 318 319 318 315 318 319 321 321 330 346 343 340 337 336 336 338 340 344 347 345 344 342 341 342 345 350 347 347 347 345 346 344 344 343 341 344 339 340 340 340 342 343 344 345 344
318 316 317 320 318 319 319 320 322 320 322 331 346 343 341 338 335 333 333 333 335 339 344 349 344 347 348 346 342 345 348 347 347 347 348 348 345 344 343 342 341 340 339 338 338 343 343 343 345
323 322 321 319 321 323 323 321 322 322 324 344 342 339 338 336 333 331 330 331 331 337 341 341 331 336 342 347 351 346 347 347 345 344 344 350 347 345 344 342 341 340 340 338 337 338 341 350 346
321 321 321 322 323 323 323 323 321 324 341 341 340 337 335 332 329 328 327 328 328 330 335 339 340 328 328 328 347 349 347 346 345 345 346 348 348 347 346 345 343 343 343 342 337 338 342 349 347
321 321 320 324 321 320 322 321 320 329 339 339 337 334 332 329 328 326 325 326 326 326 329 331 336 341 344 347 352 352 350 349 351 350 350 349 351 348 348 347 345 343 343 341 341 341 349 349 345
323 323 323 322 321 318 319 318 319 337 338 337 333 330 329 328 326 323 322 325 324 325 324 326 327 332 336 342 348 351 352 352 352 350 350 351 351 350 348 348 347 346 344 342 347 349 347 346 343
322 320 321 322 321 318 318 317 319 336 338 335 332 329 327 326 324 322 321 323 322 321 323 322 324 326 329 336 338 336 336 335 334 337 340 345 346 348 336 342 347 344 343 347 345 344 339 343 342
324 320 320 320 318 317 317 316 317 334 337 334 332 329 326 324 324 321 323 324 321 320 319 319 318 320 324 325 326 328 325 326 327 331 333 337 337 339 341 328 344 346 346 345 338 330 331 332 340
320 321 321 319 316 317 319 318 319 331 336 333 330 328 327 325 324 324 323 324 323 321 320 319 320 320 319 320 321 322 323 324 324 325 325 329 331 332 334 340 340 340 341 345 338 331 328 325 335
321 322 320 319 320 321 322 323 332 332 332 331 329 327 325 324 323 321 320 321 322 322 322 322 322 322 321 319 320 321 322 321 320 324 326 326 325 326 326 329 332 334 333 333 332 330 329 326 328
322 321 318 322 324 326 323 337 333 330 330 328 327 325 324 322 321 320 320 320 321 321 319 320 318 318 317 319 317 316 318 321 322 322 322 322 323 325 326 325 323 325 329 336 332 330 331 329 328
322 319 320 323 323 322 320 332 329 329 331 329 328 326 324 322 321 320 321 319 319 318 317 316 316 313 311 310 308 310 313 314 315 315 315 317 319 321 322 324 327 328 328 326 333 331 330 334 332
319 320 321 320 325 329 324 329 333 330 326 330 330 327 325 323 321 319 319 320 318 318 316 313 312 313 312 311 310 309 309 308 310 312 313 313 312 312 315 319 321 324 327 327 327 326 325 328 331
319 320 323 320 323 324 325 324 330 328 326 324 323 328 325 323 321 319 320 321 318 316 315 314 313 311 311 311 312 312 312 313 312 313 314 313 316 315 314 313 312 315 321 324 324 326 325 327 328
322 322 322 321 322 324 326 326 324 324 323 322 320 321 326 323 321 320 320 321 319 318 316 315 312 312 312 312 313 313 313 313 313 313 314 314 314 314 316 316 316 314 314 316 317 323 324 324 325
Wind_Speed
16 14 16 2 3 5 3 7 4 8 4 9 11 11 7 5 4 6 25 29 37 33 28 26 26 24 21 19 17 18 18 16 14 14 14 15 15 15 15 14 14 13 14 15 14 14 14 14 14
14 14 4 1 3 1 5 7 9 7 12 19 12 7 6 10 8 15 16 34 37 34 29 27 26 24 21 19 17 18 17 15 14 14 14 13 12 12 12 12 12 11 11 12 12 11 11 11 9
13 8 2 4 4 6 5 6 14 11 9 11 6 6 6 7 11 6 32 35 38 34 29 27 26 24 22 20 17 18 16 15 14 14 13 12 11 10 9 9 9 9 9 9 9 9 8 6 3
6 3 4 1 10 10 8 9 17 5 6 12 13 7 2 1 7 24 34 34 36 33 30 26 24 24 22 20 18 17 15 14 13 12 12 10 10 9 8 7 7 7 7 7 7 7 6 5 3
8 2 2 4 9 4 7 9 4 1 9 17 16 7 5 10 38 41 34 31 30 28 30 27 24 23 22 20 19 18 16 14 12 11 10 9 9 8 7 7 6 6 6 6 6 6 6 5 4
3 3 4 5 9 5 4 4 3 6 6 17 16 9 4 25 35 34 32 31 28 27 29 27 24 24 23 21 19 18 17 16 13 11 10 9 8 7 7 6 6 6 6 6 6 6 6 6 6
4 1 7 8 8 4 5 4 5 4 13 9 10 7 6 9 29 34 34 36 30 25 30 28 26 24 23 21 20 19 17 16 14 12 10 9 8 7 6 5 4 5 5 6 7 6 6 6 7
2 2 8 6 0 2 3 2 0 11 7 6 6 4 7 12 27 30 35 37 33 27 29 28 28 27 25 23 20 19 18 16 15 13 12 10 9 8 6 5 3 3 4 6 7 8 7 7 8
4 4 6 7 12 6 8 9 13 13 14 10 7 6 8 26 29 29 31 32 31 27 28 27 27 27 25 24 23 21 19 17 16 15 13 12 10 8 6 4 4 2 4 5 7 9 9 10 12
4 3 7 3 5 7 10 11 7 11 17 9 11 19 23 4 22 18 17 26 28 31 28 28 26 26 25 24 24 23 21 20 19 18 15 13 13 9 8 5 5 5 5 6 6 7 8 9 10
8 6 6 3 9 9 10 10 7 13 5 13 24 20 10 10 15 19 22 29 32 35 32 29 27 25 26 23 24 23 22 21 20 19 18 16 16 14 15 11 8 9 8 8 8 8 9 9 9
5 8 4 5 7 7 7 4 8 8 7 11 17 22 20 8 5 16 22 25 28 33 33 33 33 30 30 31 26 27 25 23 21 21 18 17 18 15 20 15 12 12 13 12 12 11 8 9 9
4 3 7 5 6 3 4 7 7 6 11 10 10 11 10 3 11 38 15 18 14 7 20 37 39 35 34 35 31 27 27 24 22 21 21 18 17 15 25 18 17 17 16 16 17 16 16 14 9
5 5 7 3 5 3 2 3 1 8 14 12 11 12 12 14 15 20 28 13 20 34 26 28 40 38 36 32 33 27 25 23 23 23 24 21 19 17 21 20 19 23 20 20 22 22 18 17 14
6 6 9 7 5 2 6 6 9 11 14 15 14 21 18 19 22 20 22 27 2 27 22 34 38 41 36 28 27 27 24 29 29 28 27 27 25 22 23 20 19 17 21 15 26 25 25 18 14
2 4 5 12 8 6 8 8 15 12 10 9 16 18 18 23 27 28 28 27 27 24 4 29 20 36 35 32 26 23 26 22 22 31 29 31 30 27 26 20 24 19 19 17 14 14 13 16 19
4 8 7 6 9 6 5 4 7 11 11 14 19 17 17 19 27 34 35 37 36 32 27 14 19 7 17 17 29 27 25 21 18 19 16 28 33 30 30 29 26 23 20 22 17 14 15 18 14
5 4 8 9 5 5 1 6 6 4 11 17 18 16 17 18 19 27 31 35 34 35 32 31 14 4 24 21 18 25 26 26 22 22 25 17 33 33 32 32 30 31 24 22 21 17 11 6 7
5 6 7 3 6 5 4 4 11 0 16 16 16 16 15 16 17 26 30 32 33 34 32 31 24 9 25 27 38 26 24 30 30 28 30 29 22 34 33 30 31 25 24 19 25 23 16 11 7
5 6 8 4 10 7 5 7 9 8 12 15 17 15 14 13 17 24 30 32 29 27 28 28 26 14 5 8 24 19 21 24 27 27 28 31 26 25 30 32 31 30 26 19 21 21 17 14 11
4 7 7 4 7 8 5 8 8 13 19 19 18 16 15 13 13 12 21 24 24 26 28 28 26 23 21 12 7 7 10 17 20 15 19 25 34 35 27 28 24 23 21 22 19 16 17 16 15
4 9 10 10 8 2 6 6 4 15 16 18 16 14 11 10 10 9 14 16 22 26 24 26 27 28 27 25 22 22 20 18 21 21 21 18 13 13 29 29 20 18 16 12 4 7 21 25 19
3 8 7 5 7 5 11 2 6 18 13 14 15 13 12 9 8 6 8 14 14 21 25 25 26 28 28 29 28 27 29 27 26 29 30 27 29 11 14 30 26 17 14 10 6 22 28 31 11
5 4 7 6 3 2 20 8 5 6 16 12 14 12 11 9 7 8 9 12 17 17 18 24 27 30 29 26 26 26 25 29 31 34 32 29 30 25 9 9 13 12 11 14 18 14 26 38 24
4 5 4 5 3 7 10 3 4 11 15 18 14 11 8 8 7 6 6 8 10 15 21 16 19 21 24 26 27 26 23 26 25 26 26 28 27 25 23 18 15 11 9 7 8 12 19 7 20
4 2 4 3 3 6 9 4 3 15 16 15 14 11 9 8 7 8 8 9 6 10 12 14 17 18 20 20 21 22 23 24 25 24 23 21 21 20 21 18 16 14 13 8 9 17 19 20 28
3 3 3 0 4 2 3 4 5 13 13 14 14 12 9 9 8 9 13 14 8 8 9 10 12 15 18 19 18 18 18 20 21 22 23 23 22 20 18 19 21 18 16 13 6 5 14 21 25
6 2 4 3 2 3 3 1 5 8 7 14 12 12 10 9 9 7 11 12 11 11 9 7 9 10 12 14 17 19 20 20 20 21 24 24 22 21 20 18 19 21 22 15 14 10 8 9 10
4 1 2 2 2 2 1 5 5 8 6 7 5 14 15 14 11 8 14 16 14 12 7 7 5 6 10 11 13 16 18 19 19 19 20 22 22 22 22 22 21 18 18 17 16 16 16 15 13
5 3 3 4 5 2 2 5 6 9 9 8 8 6 14 12 9 10 17 17 17 12 12 5 7 5 4 7 9 12 15 18 19 21 22 22 20 22 22 22 22 20 19 17 15 14 14 15 16
Wind_Direction
306 305 304 163 36 75 248 232 198 243 171 116 107 96 89 265 87 147 131 144 143 142 143 145 142 142 140 137 132 133 133 131 126 123 122 121 120 118 115 111 108 109 112 118 117 115 109 103 100
305 320 270 231 125 294 275 291 273 237 109 111 84 94 64 55 71 119 104 141 145 142 143 143 144 144 143 142 138 139 137 135 133 133 132 129 127 126 123 123 121 121 121 125 127 127 124 114 105
295 278 84 157 186 187 223 231 243 265 125 118 91 43 152 105 135 111 140 145 143 143 145 144 146 146 146 144 142 144 141 141 140 141 141 139 138 136 134 135 135 136 136 138 141 144 145 142 129
302 26 329 150 253 254 186 221 236 161 113 102 144 84 256 1 102 131 141 140 143 145 147 146 147 148 149 149 147 147 146 146 147 148 147 146 144 143 141 142 146 151 157 161 164 166 169 171 172
256 300 248 265 265 253 170 198 297 339 129 111 107 113 89 71 127 133 137 137 143 148 148 148 150 149 152 153 152 152 151 151 151 151 151 151 151 151 151 150 153 160 169 178 186 191 195 203 214
319 117 3 277 281 236 78 53 12 354 121 108 102 106 81 126 127 137 135 134 151 152 152 150 153 155 156 158 158 158 157 155 154 156 156 157 157 157 159 161 165 171 178 182 188 199 208 217 228
194 54 242 267 284 9 109 73 4 55 61 85 135 102 131 109 140 142 143 146 153 156 158 157 157 159 160 162 163 163 163 161 158 160 161 163 166 167 167 170 179 184 189 194 197 202 214 225 235
207 141 314 310 201 157 102 78 155 60 27 67 64 86 142 154 152 146 142 153 152 157 166 162 164 164 165 167 169 169 170 169 167 167 169 171 172 171 173 172 165 194 199 205 209 212 217 224 229
293 27 299 293 28 332 11 56 51 77 70 55 36 54 337 151 153 153 142 142 145 157 167 170 171 170 172 173 175 176 178 177 178 179 179 179 178 176 166 169 191 215 201 199 206 213 220 228 236
139 146 253 294 50 17 358 43 18 88 91 72 58 10 354 3 160 162 161 152 151 158 166 175 178 177 177 181 182 183 185 188 188 189 188 187 184 178 191 187 195 208 191 186 192 201 217 231 241
247 217 254 23 51 31 346 18 358 113 53 142 130 116 342 285 203 181 188 167 162 169 168 176 179 182 181 186 188 190 196 198 200 199 195 190 185 198 215 205 219 200 200 192 191 202 217 230 246
264 276 322 332 52 22 345 1 336 77 165 168 146 154 177 210 255 200 197 176 161 166 174 180 182 182 183 192 192 197 200 203 207 208 209 204 200 208 201 205 224 206 197 205 209 213 227 236 244
180 326 319 30 27 328 6 347 309 98 160 162 151 146 177 88 346 2 283 143 108 48 190 185 188 183 184 196 200 199 204 204 211 210 212 215 213 217 212 220 223 224 210 213 221 220 226 224 229
10 3 338 24 285 303 165 291 53 280 172 162 160 173 65 87 96 38 7 48 136 199 180 193 194 188 186 196 200 200 203 207 212 210 209 207 205 213 214 228 227 230 227 235 231 231 212 212 225
14 6 319 284 241 165 82 322 268 265 153 156 176 83 74 78 72 62 48 49 306 240 209 204 198 192 188 182 196 204 205 210 215 219 218 213 208 201 222 224 235 231 224 248 238 241 227 229 237
274 272 255 266 196 181 106 274 261 224 112 96 62 64 49 49 47 37 26 53 41 26 322 263 214 191 190 195 193 192 209 217 220 220 219 217 215 209 211 225 225 230 234 246 248 235 218 227 249
283 242 233 311 132 146 148 275 1 113 114 87 79 63 49 41 36 28 22 26 29 36 30 66 68 97 23 229 211 211 220 222 217 216 226 221 221 215 213 217 221 226 229 241 239 238 247 254 262
333 292 309 148 178 112 33 305 322 154 101 96 87 71 57 45 32 26 25 29 31 26 32 45 59 127 45 296 286 224 229 237 238 237 234 243 227 223 214 221 224 226 231 239 237 238 238 191 105
326 343 338 83 142 116 131 275 289 192 103 93 84 73 61 48 32 26 23 35 31 30 27 26 52 61 173 241 260 233 242 245 248 251 244 249 248 225 219 221 225 222 231 236 233 239 242 206 199
345 324 305 7 20 56 16 291 284 75 98 92 88 77 67 46 36 23 18 28 35 32 31 32 34 40 34 268 253 252 246 241 247 249 248 251 255 237 232 231 229 224 236 236 233 237 215 209 206
4 36 8 17 4 347 352 292 258 100 101 94 83 80 68 60 50 27 18 26 34 33 34 32 38 40 37 30 352 300 272 272 296 299 309 268 251 245 246 241 240 238 242 255 246 236 240 227 222
74 12 9 358 12 287 60 287 332 133 113 98 93 86 79 70 58 42 16 29 42 42 39 40 36 41 45 40 43 46 36 23 9 23 15 336 309 269 343 337 239 234 246 251 287 339 342 297 244
318 31 341 310 296 328 276 285 282 135 112 101 99 101 102 87 93 74 26 19 48 44 44 46 46 41 37 43 46 45 42 37 34 31 32 30 39 328 280 254 306 255 230 207 204 330 335 349 297
282 308 297 275 193 292 261 179 308 172 131 110 104 105 112 118 113 119 79 37 37 43 46 55 55 53 50 47 44 41 34 38 37 36 36 32 36 45 50 214 267 287 261 233 284 331 51 23 336
45 24 342 348 7 234 330 307 152 89 115 118 116 112 109 109 104 91 77 72 38 41 40 45 48 48 48 50 48 46 39 35 40 39 37 38 32 26 20 25 30 20 348 312 270 248 233 184 269
324 174 151 263 324 309 329 101 154 104 109 113 122 122 124 129 143 148 153 122 78 52 42 49 51 49 49 51 44 42 41 38 34 36 38 38 34 30 24 11 5 15 15 342 261 220 251 239 239
338 343 193 250 277 326 230 68 79 125 130 130 136 141 151 157 182 175 151 127 126 92 67 57 51 50 49 49 45 41 35 32 28 25 26 26 25 23 17 19 17 8 5 22 24 223 218 247 256
171 216 16 350 222 280 315 354 180 151 132 154 152 156 165 175 180 161 146 158 154 136 113 79 71 56 54 50 48 45 41 37 34 31 26 23 18 10 6 11 16 14 20 7 359 5 353 334 310
39 351 21 131 122 181 298 292 122 125 131 133 161 171 175 182 183 168 179 174 136 134 131 127 94 80 70 50 36 30 26 26 25 24 21 14 10 13 15 6 1 6 11 20 17 19 19 26 19
74 38 108 122 287 325 166 268 145 157 168 177 219 207 186 182 171 175 183 166 148 165 159 179 152 133 65 37 26 25 21 16 13 10 9 10 9 3 4 3 0 3 358 350 2 4 1 10 12